GW7223 Weather Reports


time (UTC)temp
F
wind
direction
speed
knots
gust
knots
rain 1hr
in
rain 24hr
in
rain mn
in
humidity
%
barometer
mb
20260507023937 85 175 4.3 0.0 0.00 0.05 0.00 66 1009.8
20260507023436 85 129 2.6 0.0 0.00 0.04 0.00 66 1009.7
20260507022953 85 159 6.1 0.0 0.00 0.04 0.00 66 1009.6
20260507022437 85 161 5.2 0.0 0.00 0.04 0.00 66 1009.5
20260507021936 85 139 7.0 0.0 0.00 0.04 0.00 65 1009.4
20260507021452 86 117 1.7 0.0 0.00 0.04 0.00 64 1009.4
20260507020937 86 152 5.2 0.0 0.00 0.04 0.00 64 1009.2
20260507020437 86 128 3.5 0.0 0.00 0.04 0.00 63 1009.2
20260507015938 86 129 7.0 0.0 0.00 0.04 0.00 62 1009.1
20260507015438 86 205 8.7 0.0 0.00 0.04 0.00 62 1009.1
20260507014938 87 172 5.2 0.0 0.00 0.03 0.00 61 1009.1
20260507014451 87 158 8.7 0.0 0.00 0.03 0.00 60 1009.0
20260507013938 87 93 4.3 0.0 0.00 0.03 0.00 59 1009.0
20260507013452 88 157 9.6 0.0 0.00 0.03 0.00 59 1009.0
20260507012938 89 128 7.8 0.0 0.00 0.03 0.00 55 1008.9
20260507012438 89 91 3.5 0.0 0.00 0.03 0.00 50 1008.7
20260507011938 90 175 7.8 0.0 0.00 0.03 0.00 50 1008.5
20260507011436 90 189 7.8 0.0 0.00 0.03 0.00 49 1008.4
20260507010937 90 156 0.0 0.0 0.00 0.02 0.00 48 1008.4
20260507010438 90 123 2.6 0.0 0.00 0.02 0.00 47 1008.3
20260507005953 90 139 5.2 0.0 0.00 0.02 0.00 47 1008.3
20260507005438 90 163 4.3 0.0 0.00 0.02 0.00 46 1008.2
20260507004938 91 153 3.5 0.0 0.00 0.02 0.00 47 1008.1
20260507004438 91 141 7.0 0.0 0.00 0.02 0.00 46 1008.0
20260507003939 91 139 6.1 0.0 0.00 0.02 0.00 46 1008.0
20260507003436 91 152 5.2 0.0 0.00 0.02 0.00 46 1007.9
20260507002939 92 115 2.6 0.0 0.00 0.01 0.00 46 1007.9
20260507002437 92 148 7.8 0.0 0.00 0.01 0.00 45 1007.9
20260507001938 92 120 5.2 0.0 0.00 0.01 0.00 45 1007.8
20260507001437 92 122 3.5 0.0 0.00 0.01 0.00 45 1007.8
20260507000953 93 76 1.7 0.0 0.00 0.01 0.00 45 1007.7
20260507000437 92 140 8.7 0.0 0.00 0.01 0.00 45 1007.6
20260506235937 93 137 7.0 0.0 0.00 0.01 0.00 45 1007.5
20260506235438 93 141 4.3 0.0 0.00 0.01 0.00 44 1007.4
20260506234938 93 181 12.2 0.0 0.00 0.01 0.00 44 1007.2
20260506234436 93 92 4.3 0.0 0.00 0.01 0.00 44 1007.2
20260506233937 94 162 2.6 0.0 0.00 0.01 0.00 44 1007.1
20260506233453 94 169 10.4 0.0 0.00 0.01 0.00 44 1007.0
20260506232952 94 171 5.2 0.0 0.00 0.01 0.00 42 1006.9
20260506232437 94 190 4.3 0.0 0.00 0.01 0.00 42 1006.9
20260506231954 94 148 7.8 0.0 0.00 0.01 0.00 41 1006.8
20260506231438 95 106 6.1 0.0 0.00 0.01 0.00 41 1006.8
20260506230936 95 155 13.9 0.0 0.00 0.01 0.00 42 1006.7
20260506230437 94 161 9.6 0.0 0.00 0.01 0.00 42 1006.7
20260506225937 94 155 17.4 0.0 0.00 0.01 0.00 41 1006.7
20260506225438 95 99 13.0 0.0 0.00 0.01 0.00 42 1006.7
20260506224937 95 160 6.1 0.0 0.00 0.01 0.00 40 1006.7
20260506224438 95 163 12.2 0.0 0.00 0.01 0.00 42 1006.7
20260506223936 96 147 7.0 0.0 0.00 0.01 0.00 42 1006.7
20260506223436 95 236 3.5 0.0 0.00 0.01 0.00 42 1006.7
20260506222938 95 79 3.5 0.0 0.00 0.01 0.00 42 1006.7
20260506222436 96 132 5.2 0.0 0.00 0.01 0.00 40 1006.8
20260506221939 95 121 2.6 0.0 0.00 0.01 0.00 41 1006.7
20260506221437 95 167 11.3 0.0 0.00 0.01 0.00 41 1006.6
20260506220952 96 122 11.3 0.0 0.00 0.01 0.00 40 1006.6
20260506220438 96 147 9.6 0.0 0.00 0.01 0.00 40 1006.6
20260506215936 97 166 15.6 0.0 0.00 0.01 0.00 38 1006.6
20260506215438 96 137 4.3 0.0 0.00 0.01 0.00 35 1006.6
20260506214953 96 192 4.3 0.0 0.00 0.01 0.00 38 1006.7
20260506214453 96 179 12.2 0.0 0.00 0.01 0.00 38 1006.8
20260506213939 96 101 6.1 0.0 0.00 0.01 0.00 40 1006.8
20260506213437 96 68 7.0 0.0 0.00 0.01 0.00 39 1006.8
20260506212937 97 150 6.1 0.0 0.00 0.01 0.00 38 1006.8
20260506212438 96 157 6.1 0.0 0.00 0.01 0.00 38 1006.9
20260506211952 97 154 9.6 0.0 0.00 0.01 0.00 39 1006.9
20260506211438 97 161 13.9 0.0 0.00 0.01 0.00 39 1006.9
20260506210938 97 157 10.4 0.0 0.00 0.01 0.00 39 1006.8
20260506210438 97 93 7.8 0.0 0.00 0.01 0.00 39 1006.9
20260506205936 97 130 10.4 0.0 0.00 0.01 0.00 40 1006.8
20260506205438 96 119 3.5 0.0 0.00 0.01 0.00 39 1006.9
20260506204937 97 127 19.1 0.0 0.00 0.01 0.00 40 1006.9
20260506204437 97 138 15.6 0.0 0.00 0.01 0.00 39 1007.0
20260506203937 97 91 20.0 0.0 0.00 0.01 0.00 38 1007.0
20260506203436 98 122 9.6 0.0 0.00 0.01 0.00 38 1007.0
20260506202938 98 144 17.4 0.0 0.00 0.01 0.00 39 1007.0
20260506202452 97 106 2.6 0.0 0.00 0.01 0.00 39 1007.1
20260506201938 97 122 8.7 0.0 0.00 0.01 0.00 39 1007.2
20260506201437 97 169 14.8 0.0 0.00 0.01 0.00 37 1007.3
20260506200936 97 134 9.6 0.0 0.00 0.01 0.00 37 1007.4
20260506200438 97 149 4.3 0.0 0.00 0.01 0.00 37 1007.4
20260506195937 96 170 8.7 0.0 0.00 0.01 0.00 38 1007.5
20260506195438 96 153 22.6 0.0 0.00 0.01 0.00 38 1007.6
20260506194937 96 138 13.0 0.0 0.00 0.01 0.00 36 1007.7
20260506194436 96 186 9.6 0.0 0.00 0.01 0.00 38 1007.7
20260506193938 97 149 11.3 0.0 0.00 0.01 0.00 36 1007.8
20260506193452 96 131 11.3 0.0 0.00 0.01 0.00 35 1007.9
20260506192938 96 173 6.1 0.0 0.00 0.01 0.00 37 1008.0
20260506192438 96 201 13.0 0.0 0.00 0.01 0.00 38 1008.1
20260506191937 97 142 10.4 0.0 0.00 0.01 0.00 38 1008.1
20260506191438 96 173 12.2 0.0 0.00 0.01 0.00 38 1008.1
20260506190936 96 120 7.0 0.0 0.00 0.01 0.00 39 1008.2
20260506190438 96 163 8.7 0.0 0.00 0.01 0.00 39 1008.3
20260506185937 96 133 8.7 0.0 0.00 0.01 0.00 38 1008.4
20260506185438 96 185 8.7 0.0 0.00 0.01 0.00 38 1008.5
20260506184937 96 76 4.3 0.0 0.00 0.01 0.00 40 1008.6
20260506184438 96 153 11.3 0.0 0.00 0.01 0.00 41 1008.6
20260506183951 95 136 2.6 0.0 0.00 0.01 0.00 40 1008.8
20260506183436 96 108 3.5 0.0 0.00 0.01 0.00 39 1008.7
20260506182938 97 168 10.4 0.0 0.00 0.01 0.00 39 1008.8
20260506182437 96 188 5.2 0.0 0.00 0.01 0.00 38 1008.8
20260506181938 97 151 7.0 0.0 0.00 0.01 0.00 37 1008.9
20260506181453 96 153 3.5 0.0 0.00 0.01 0.00 36 1008.9
20260506180952 96 149 9.6 0.0 0.00 0.01 0.00 36 1009.0
20260506180438 97 161 5.2 0.0 0.00 0.01 0.00 34 1009.1
20260506175937 96 214 1.7 0.0 0.00 0.01 0.00 33 1009.1
20260506175436 96 156 10.4 0.0 0.00 0.01 0.00 33 1009.1
20260506174937 96 170 7.8 0.0 0.00 0.01 0.00 29 1009.2
20260506174438 96 165 8.7 0.0 0.00 0.01 0.00 28 1009.2
20260506173951 96 237 5.2 0.0 0.00 0.01 0.00 26 1009.3
20260506173437 96 157 14.8 0.0 0.00 0.01 0.00 28 1009.3
20260506172937 97 141 4.3 0.0 0.00 0.01 0.00 27 1009.3
20260506172436 96 144 5.2 0.0 0.00 0.01 0.00 26 1009.3
20260506171937 97 202 1.7 0.0 0.00 0.01 0.00 27 1009.3
20260506171437 95 164 3.5 0.0 0.00 0.01 0.00 28 1009.4
20260506170936 95 144 7.0 0.0 0.00 0.01 0.00 28 1009.4
20260506170436 96 151 11.3 0.0 0.00 0.01 0.00 28 1009.5
20260506165938 96 150 8.7 0.0 0.00 0.01 0.00 27 1009.5
20260506165437 96 127 6.1 0.0 0.00 0.01 0.00 27 1009.6
20260506164939 95 104 5.2 0.0 0.00 0.01 0.00 28 1009.6
20260506164436 95 196 7.8 0.0 0.00 0.01 0.00 28 1009.7
20260506163937 95 47 5.2 0.0 0.00 0.01 0.00 28 1009.7
20260506163437 95 161 2.6 0.0 0.00 0.01 0.00 28 1009.7
20260506162953 95 188 3.5 0.0 0.00 0.01 0.00 28 1009.8
20260506162438 95 193 3.5 0.0 0.00 0.01 0.00 27 1009.9
20260506161937 95 149 10.4 0.0 0.00 0.01 0.00 26 1009.9
20260506161437 95 113 2.6 0.0 0.00 0.01 0.00 26 1009.9
20260506160936 94 158 0.0 0.0 0.00 0.01 0.00 26 1010.0
20260506160436 94 227 2.6 0.0 0.00 0.01 0.00 26 1010.0
20260506155938 94 181 0.0 0.0 0.00 0.01 0.00 26 1010.0
20260506155437 93 175 2.6 0.0 0.00 0.01 0.00 27 1010.0
20260506154938 93 153 0.0 0.0 0.00 0.01 0.00 27 1010.1
20260506154436 93 163 3.5 0.0 0.00 0.01 0.00 27 1010.1
20260506153938 93 77 5.2 0.0 0.00 0.01 0.00 27 1010.1
20260506153436 93 92 0.0 0.0 0.00 0.01 0.00 29 1010.0
20260506152937 93 353 0.0 0.0 0.00 0.01 0.00 29 1010.0
20260506152438 92 97 2.6 0.0 0.00 0.01 0.00 29 1010.0
20260506151953 92 145 0.0 0.0 0.00 0.01 0.00 30 1010.1
20260506151436 91 119 0.0 0.0 0.00 0.01 0.00 30 1010.2
20260506150937 90 174 4.3 0.0 0.00 0.01 0.00 31 1010.2
20260506150437 90 84 1.7 0.0 0.00 0.01 0.00 32 1010.2
20260506145936 89 105 0.0 0.0 0.00 0.01 0.00 32 1010.2
20260506145437 88 273 2.6 0.0 0.00 0.01 0.00 32 1010.3
20260506144938 87 180 0.9 0.0 0.00 0.00 0.00 33 1010.2
20260506144436 86 327 1.7 0.0 0.00 0.00 0.00 33 1010.2
20260506143937 85 297 5.2 0.0 0.00 0.00 0.00 32 1010.2
20260506143438 85 349 6.1 0.0 0.00 0.00 0.00 32 1010.1
20260506142953 84 325 3.5 0.0 0.00 0.00 0.00 32 1010.2
20260506142451 83 312 8.7 0.0 0.00 0.00 0.00 32 1010.2
20260506141938 83 321 9.6 0.0 0.00 0.00 0.00 32 1010.2
20260506141436 83 307 10.4 0.0 0.00 0.00 0.00 32 1010.2
20260506140936 82 111 3.5 0.0 0.00 0.00 0.00 40 1010.3
20260506140438 81 301 4.3 0.0 0.00 0.00 0.00 40 1010.3
20260506135953 80 117 1.7 0.0 0.00 0.00 0.00 43 1010.3
20260506135438 79 44 2.6 0.0 0.00 0.00 0.00 44 1010.4
20260506134938 78 305 3.5 0.0 0.00 0.00 0.00 44 1010.4
20260506134438 78 346 7.0 0.0 0.00 0.00 0.00 44 1010.5
20260506133936 77 17 4.3 0.0 0.00 0.00 0.00 44 1010.6
20260506133437 77 108 4.3 0.0 0.00 0.00 0.00 42 1010.5
20260506132952 76 13 4.3 0.0 0.00 0.00 0.00 43 1010.6
20260506132438 75 327 7.8 0.0 0.00 0.00 0.00 43 1010.5
20260506131937 75 327 7.8 0.0 0.00 0.00 0.00 43 1010.5
20260506131452 75 326 7.0 0.0 0.00 0.00 0.00 44 1010.5
20260506130937 74 4 8.7 0.0 0.00 0.00 0.00 45 1010.6
20260506130436 73 20 4.3 0.0 0.00 0.00 0.00 47 1010.6
20260506125938 73 334 7.8 0.0 0.00 0.00 0.00 48 1010.6
20260506125452 73 346 7.0 0.0 0.00 0.00 0.00 49 1010.7
20260506124937 73 23 1.7 0.0 0.00 0.00 0.00 48 1010.7
20260506124438 73 65 3.5 0.0 0.00 0.00 0.00 48 1010.7
20260506123938 72 108 1.7 0.0 0.00 0.00 0.00 48 1010.6
20260506123436 72 314 8.7 0.0 0.00 0.00 0.00 46 1010.5
20260506122936 72 318 7.0 0.0 0.00 0.00 0.00 47 1010.5
20260506122438 72 355 3.5 0.0 0.00 0.00 0.00 47 1010.4
20260506121938 71 353 8.7 0.0 0.00 0.00 0.00 48 1010.4
20260506121437 70 340 13.9 0.0 0.00 0.00 0.00 50 1010.4
20260506120937 69 4 12.2 0.0 0.00 0.00 0.00 53 1010.5
20260506120436 69 345 7.0 0.0 0.00 0.00 0.00 55 1010.5
20260506115938 70 86 6.1 0.0 0.00 0.00 0.00 52 1010.4
20260506115436 70 342 8.7 0.0 0.00 0.00 0.00 50 1010.4
20260506114936 70 348 4.3 0.0 0.00 0.00 0.00 50 1010.4
20260506114437 69 6 5.2 0.0 0.00 0.00 0.00 51 1010.4
20260506113937 69 6 6.1 0.0 0.00 0.00 0.00 52 1010.5
20260506113436 70 11 7.8 0.0 0.00 0.00 0.00 52 1010.6
20260506112952 70 9 3.5 0.0 0.00 0.00 0.00 51 1010.6
20260506112438 70 10 7.0 0.0 0.00 0.00 0.00 51 1010.6
20260506111938 70 352 6.1 0.0 0.00 0.00 0.00 51 1010.5
20260506111436 70 350 7.8 0.0 0.00 0.00 0.00 50 1010.6
20260506110938 70 35 7.0 0.0 0.00 0.00 0.00 50 1010.5
20260506110453 70 348 9.6 0.0 0.00 0.00 0.00 50 1010.4
20260506105938 69 4 5.2 0.0 0.00 0.00 0.00 53 1010.4
20260506105439 69 360 9.6 0.0 0.00 0.00 0.00 54 1010.5
20260506104952 69 341 5.2 0.0 0.00 0.00 0.00 56 1010.5
20260506104437 69 335 6.1 0.0 0.00 0.00 0.00 56 1010.4
20260506103937 69 351 9.6 0.0 0.00 0.00 0.00 54 1010.4
20260506103438 69 348 5.2 0.0 0.00 0.00 0.00 56 1010.4
20260506102936 69 334 4.3 0.0 0.00 0.00 0.00 57 1010.3
20260506102437 69 26 4.3 0.0 0.00 0.00 0.00 58 1010.3
20260506101952 69 4 5.2 0.0 0.00 0.00 0.00 58 1010.2
20260506101437 69 44 4.3 0.0 0.00 0.00 0.00 58 1010.2
20260506100938 69 360 3.5 0.0 0.00 0.00 0.00 58 1010.2
20260506100437 69 344 7.0 0.0 0.00 0.00 0.00 57 1010.2
20260506095937 69 16 6.1 0.0 0.00 0.00 0.00 59 1010.2
20260506095438 70 1 8.7 0.0 0.00 0.00 0.00 59 1010.3
20260506094937 70 40 1.7 0.0 0.00 0.00 0.00 60 1010.2
20260506094438 71 353 4.3 0.0 0.00 0.00 0.00 60 1010.2
20260506093936 71 25 3.5 0.0 0.00 0.00 0.00 59 1010.1
20260506093437 71 66 3.5 0.0 0.00 0.00 0.00 59 1010.1
20260506092939 71 35 3.5 0.0 0.00 0.00 0.00 58 1010.1
20260506092436 71 26 3.5 0.0 0.00 0.00 0.00 58 1010.1
20260506091938 71 264 5.2 0.0 0.00 0.00 0.00 57 1010.2
20260506091437 71 357 2.6 0.0 0.00 0.00 0.00 60 1010.2
20260506090937 80 153 0.0 0.0 0.00 0.08 0.00 77 1010.6
20260506090438 80 153 0.0 0.0 0.00 0.08 0.00 77 1010.6
20260506085953 80 153 0.0 0.0 0.00 0.08 0.00 77 1010.6
20260506085438 80 153 0.0 0.0 0.00 0.08 0.00 77 1010.6
20260506084936 80 153 0.0 0.0 0.00 0.08 0.00 77 1010.6
20260506084438 80 153 0.0 0.0 0.00 0.08 0.00 77 1010.6
20260506083938 80 153 0.0 0.0 0.00 0.08 0.00 77 1010.6
20260506083437 80 153 0.0 0.0 0.00 0.08 0.00 77 1010.6
20260506082952 80 153 0.0 0.0 0.00 0.08 0.00 77 1010.6
20260506082453 80 153 0.0 0.0 0.00 0.08 0.00 77 1010.6
20260506081938 80 153 0.0 0.0 0.00 0.08 0.00 77 1010.6
20260506081453 80 153 0.0 0.0 0.00 0.08 0.00 77 1010.6
20260506080938 80 153 0.0 0.0 0.00 0.08 0.00 77 1010.6
20260506080452 80 153 0.0 0.0 0.00 0.08 0.00 77 1010.6
20260506073437 80 153 0.0 0.0 0.00 0.08 0.00 77 1010.6
20260506072936 80 153 0.0 0.0 0.00 0.08 0.00 77 1010.6
20260506072438 80 153 0.0 0.0 0.00 0.08 0.00 77 1010.6
20260506071937 80 153 0.0 0.0 0.00 0.08 0.00 77 1010.6
20260506071436 80 153 0.0 0.0 0.00 0.08 0.00 77 1010.6
20260506070938 80 153 0.0 0.0 0.00 0.08 0.00 77 1010.6
20260506070438 80 153 0.0 0.0 0.00 0.08 0.00 77 1010.6
20260506062438 80 153 0.0 0.0 0.00 0.08 0.00 77 1010.6
20260506061938 80 153 0.0 0.0 0.00 0.08 0.00 77 1010.6
20260506061438 80 153 0.0 0.0 0.00 0.08 0.00 77 1010.6
20260506060938 80 153 0.0 0.0 0.00 0.08 0.00 77 1010.6
20260506060437 80 153 0.0 0.0 0.00 0.08 0.00 77 1010.6
20260506050937 80 153 0.0 0.0 0.08 0.08 0.00 77 1010.6
20260506050436 80 153 0.0 0.0 0.08 0.08 0.00 77 1010.6
20260506044938 80 153 0.0 0.0 0.08 0.08 0.00 77 1010.6
20260506044437 80 153 0.0 0.0 0.08 0.08 0.00 77 1010.6
20260506043937 80 153 0.0 0.0 0.08 0.08 0.00 77 1010.6
20260506043437 80 153 0.0 0.0 0.08 0.08 0.00 77 1010.6
20260506042938 80 153 0.0 0.0 0.08 0.08 0.00 77 1010.6
20260506042437 80 153 0.0 0.0 0.08 0.08 0.00 77 1010.6
20260506041938 80 153 0.0 0.0 0.08 0.08 0.00 77 1010.6
20260506041437 80 153 0.0 0.0 0.08 0.08 0.00 77 1010.6
20260506040937 80 153 0.0 0.0 0.08 0.08 0.00 77 1010.6
20260506040437 80 153 0.0 0.0 0.08 0.08 0.00 77 1010.6
20260506035937 80 153 0.0 0.0 0.08 0.08 0.00 77 1010.6
20260506035438 80 153 0.0 0.0 0.08 0.08 0.00 77 1010.6
20260506034951 80 153 0.0 0.0 0.08 0.08 0.00 77 1010.6
20260506034438 80 153 0.0 0.0 0.08 0.08 0.00 77 1010.6
20260506033951 80 153 0.0 0.0 0.08 0.08 0.00 77 1010.6
20260506033437 80 153 0.0 0.0 0.08 0.08 0.00 77 1010.6
20260506032938 80 153 0.0 0.0 0.08 0.08 0.00 77 1010.6
20260506032451 80 153 0.0 0.0 0.08 0.08 0.00 77 1010.6
20260506031952 80 153 0.0 0.0 0.08 0.08 0.00 77 1010.6
20260506031452 80 153 0.0 0.0 0.08 0.08 0.00 77 1010.6
20260506030938 80 153 0.0 0.0 0.08 0.08 0.00 77 1010.6
20260506030438 80 153 0.0 0.0 0.08 0.08 0.00 77 1010.6
20260506025938 80 160 0.0 0.0 0.08 0.08 0.00 77 1010.6
20260506025451 80 155 0.9 0.0 0.08 0.08 0.00 78 1010.5
20260506024938 80 114 5.2 0.0 0.08 0.08 0.00 78 1010.4
20260506024436 81 102 5.2 0.0 0.08 0.08 0.00 77 1010.3